Location: *
(50.3194°N, 7.1067°E)
Time: 16:37:40
(UTC+00:00)

Cosmos 2218 Rocket - Pass Details

Date: 22 September 2019
Orbit: 956 x 1006 km, 82.9° (Epoch: 16 October)

Event Time Altitude Azimuth Distance (km) Brightness Sun altitude
Rises 18:43:19 0° 352° (N) 3,743 7.4 -12.3°
Reaches altitude 10° 18:45:56 10° 356° (N) 2,784 6.7 -12.7°
Maximum altitude 18:52:14 59° 76° (ENE) 1,144 4.1 -13.7°
Drops below altitude 10° 18:58:26 10° 155° (SSE) 2,736 5.9 -14.6°
Enters shadow 18:59:16 - 157° (SSE) 3,038 6.2 -14.7°
